This demonstration page uses our WeatherBlox Daily Observations layout. Learn more.

Left ArrowRight Arrow

39.08367, -84.50855

Hourly Observations for October 13, 2018

Temp ( °F °C ) Dew Point ( °F °C ) Humidity (%) Winds ( mph kmh ) Pressure ( in mb ) Visibility ( mi km ) Precip ( " mm )
12:53 am 00:53 Cloudy 43 6.1 41 5 93 93 W 7 11 29.96 1015 10 16 N/A
1:02 am 01:02 Cloudy 43 6.1 40 4.4 89 89 NW 3 6 29.97 1015 10 16 N/A
1:17 am 01:17 Cloudy 43 6.1 40 4.4 89 89 NW 7 11 29.97 1015 10 16 N/A
1:30 am 01:30 Cloudy 43 6.1 40 4.4 89 89 VRB 5 7 29.97 1015 10 16 N/A
1:53 am 01:53 Cloudy 42 5.6 39 3.9 89 89 NW 8 13 29.98 1015 10 16 N/A
2:53 am 02:53 Cloudy 42 5.6 38 3.3 85 85 NW 9 15 29.99 1016 10 16 N/A
3:53 am 03:53 Cloudy 42 5.6 38 3.3 85 85 WNW 5 7 30.00 1016 10 16 N/A
4:53 am 04:53 Cloudy 42 5.6 38 3.3 85 85 NW 6 9 30.01 1016 10 16 N/A
5:53 am 05:53 Cloudy 42 5.6 37 2.8 82 82 NNW 8 13 30.03 1017 10 16 N/A
6:53 am 06:53 Cloudy 43 6.1 37 2.8 80 80 N 6 9 30.06 1018 10 16 N/A
7:53 am 07:53 Cloudy 43 6.1 37 2.8 80 80 N 7 11 30.08 1019 10 16 N/A
8:53 am 08:53 Cloudy 43 6.1 36 2.2 76 76 NNE 5 7 30.11 1020 10 16 N/A
9:53 am 09:53 Cloudy 43 6.1 36 2.2 76 76 N 6 9 30.13 1020 10 16 N/A
10:53 am 10:53 Cloudy 43 6.1 36 2.2 76 76 N N/A 30.14 1021 10 16 N/A
11:53 am 11:53 Cloudy 44 6.7 37 2.8 76 76 N N/A 30.15 1021 10 16 N/A
12:53 pm 12:53 Cloudy 46 7.8 38 3.3 73 73 N N/A 30.13 1020 10 16 N/A
1:53 pm 13:53 Cloudy 47 8.3 39 3.9 74 74 N N/A 30.12 1020 10 16 N/A
2:53 pm 14:53 Mostly Cloudy 49 9.4 39 3.9 69 69 SW 12 19 30.10 1019 10 16 N/A
3:53 pm 15:53 Partly Cloudy 50 10 39 3.9 66 66 SW 6 9 30.09 1019 10 16 N/A
4:53 pm 16:53 Partly Cloudy 51 10.6 40 4.4 66 66 VRB 5 7 30.08 1019 10 16 N/A
5:53 pm 17:53 Mostly Sunny 50 10 40 4.4 68 68 SSE 5 7 30.08 1019 10 16 N/A
6:53 pm 18:53 Sunny 47 8.3 41 5 80 80 SSE 3 6 30.09 1019 10 16 N/A
7:53 pm 19:53 Clear 46 7.8 41 5 83 83 SSE 6 9 30.11 1020 10 16 N/A
8:53 pm 20:53 Clear 45 7.2 41 5 86 86 SSE 5 7 30.12 1020 10 16 N/A
9:53 pm 21:53 Clear 45 7.2 42 5.6 90 90 N N/A 30.12 1020 10 16 N/A
10:53 pm 22:53 Clear 46 7.8 43 6.1 89 89 N N/A 30.11 1020 10 16 N/A
11:53 pm 23:53 Clear 46 7.8 43 6.1 89 89 N N/A 30.12 1020 10 16 N/A

Powered by AerisWeather